EJA84S KLAX-KDEN

Flight info

Callsign EJA84S
Flight time N/A
Altitude 28000
Route ORCKA5 LAS J146 DICEE BUMMP SSKII4
Aircraft C700/M-SBDGHM1RWXY/LB2

Departure

Time 2026-04-22 04:36
Airport Los Angeles International Airport (KLAX)

Arrival

Time N/A
Airport Denver International Airport (KDEN)
Time Latitude Longitude Altitude Speed Heading
2026-04-22 04:02 33.93376 -118.39915 92 ft 0 kts 23°
2026-04-22 04:26 33.93379 -118.39912 118 ft 1 kts 46°
2026-04-22 04:26 33.93380 -118.39901 117 ft 4 kts 81°
2026-04-22 04:26 33.93381 -118.39836 120 ft 9 kts 82°
2026-04-22 04:26 33.93387 -118.39822 120 ft 1 kts 57°
2026-04-22 04:27 33.93410 -118.39812 118 ft 4 kts 353°
2026-04-22 04:27 33.93445 -118.39813 120 ft 4 kts 27°
2026-04-22 04:27 33.93459 -118.39782 120 ft 6 kts 71°
2026-04-22 04:27 33.93465 -118.39718 118 ft 9 kts 83°
2026-04-22 04:28 33.93475 -118.39625 120 ft 13 kts 83°
2026-04-22 04:28 33.93488 -118.39499 120 ft 17 kts 83°
2026-04-22 04:28 33.93504 -118.39343 120 ft 20 kts 83°
2026-04-22 04:28 33.93522 -118.39160 118 ft 20 kts 83°
2026-04-22 04:29 33.93538 -118.39007 118 ft 16 kts 83°
2026-04-22 04:29 33.93553 -118.38865 119 ft 19 kts 82°
2026-04-22 04:29 33.93570 -118.38694 120 ft 22 kts 83°
2026-04-22 04:29 33.93590 -118.38498 120 ft 23 kts 82°
2026-04-22 04:30 33.93601 -118.38398 120 ft 12 kts 83°
2026-04-22 04:30 33.93612 -118.38284 118 ft 15 kts 83°
2026-04-22 04:30 33.93619 -118.38213 120 ft 0 kts 83°
2026-04-22 04:30 33.93619 -118.38212 120 ft 0 kts 89°
2026-04-22 04:31 33.93619 -118.38211 120 ft 1 kts 92°
2026-04-22 04:31 33.93619 -118.38210 120 ft 0 kts 78°
2026-04-22 04:31 33.93618 -118.38206 120 ft 1 kts 116°
2026-04-22 04:31 33.93612 -118.38207 120 ft 1 kts 189°
2026-04-22 04:32 33.93611 -118.38213 120 ft 0 kts 256°
2026-04-22 04:32 33.93611 -118.38222 120 ft 3 kts 271°
2026-04-22 04:32 33.93619 -118.38261 120 ft 6 kts 301°
2026-04-22 04:32 33.93640 -118.38274 120 ft 0 kts 349°
2026-04-22 04:34 33.93643 -118.38275 118 ft 3 kts 353°
2026-04-22 04:34 33.93691 -118.38283 120 ft 9 kts 345°
2026-04-22 04:35 33.93728 -118.38348 120 ft 11 kts 278°
2026-04-22 04:35 33.93715 -118.38502 120 ft 40 kts 263°
2026-04-22 04:35 33.93639 -118.39224 120 ft 132 kts 262°
2026-04-22 04:35 33.93490 -118.40575 456 ft 188 kts 262°
2026-04-22 04:36 33.93303 -118.42305 1390 ft 223 kts 263°
2026-04-22 04:36 33.93087 -118.44254 2642 ft 241 kts 263°
2026-04-22 04:36 33.92838 -118.46297 4345 ft 254 kts 259°
2026-04-22 04:36 33.92088 -118.48308 5016 ft 270 kts 232°
2026-04-22 04:37 33.90752 -118.49855 5035 ft 264 kts 222°
2026-04-22 04:37 33.89408 -118.51287 5042 ft 260 kts 224°
2026-04-22 04:37 33.88182 -118.52873 5057 ft 258 kts 229°
2026-04-22 04:37 33.86804 -118.54251 5055 ft 260 kts 212°
2026-04-22 04:38 33.85154 -118.55148 5058 ft 263 kts 198°
2026-04-22 04:38 33.83314 -118.55456 6386 ft 266 kts 184°
2026-04-22 04:38 33.81480 -118.55235 8192 ft 265 kts 169°
2026-04-22 04:38 33.79682 -118.54743 9912 ft 268 kts 173°
2026-04-22 04:39 33.77785 -118.54311 11060 ft 291 kts 173°
2026-04-22 04:39 33.75747 -118.53762 12348 ft 304 kts 171°
2026-04-22 04:39 33.73708 -118.52973 13882 ft 316 kts 162°
2026-04-22 04:39 33.71757 -118.51644 15198 ft 329 kts 151°
2026-04-22 04:40 33.69999 -118.49806 16523 ft 342 kts 140°
2026-04-22 04:40 33.68543 -118.47479 17816 ft 356 kts 127°
2026-04-22 04:40 33.67506 -118.44762 18972 ft 370 kts 115°
2026-04-22 04:40 33.66663 -118.41814 20046 ft 377 kts 114°
2026-04-22 04:41 33.65781 -118.38818 21088 ft 384 kts 115°
2026-04-22 04:41 33.64907 -118.35754 22049 ft 393 kts 110°
2026-04-22 04:41 33.64465 -118.32469 23039 ft 404 kts 98°
2026-04-22 04:41 33.64434 -118.29070 23976 ft 412 kts 93°
2026-04-22 04:42 33.64516 -118.25596 24804 ft 420 kts 87°
2026-04-22 04:42 33.65111 -118.22133 25655 ft 428 kts 76°
2026-04-22 04:42 33.66229 -118.18792 26455 ft 435 kts 64°
2026-04-22 04:42 33.67869 -118.15721 27240 ft 441 kts 52°
2026-04-22 04:43 33.69952 -118.13077 27994 ft 444 kts 40°
2026-04-22 04:43 33.72412 -118.10812 28808 ft 447 kts 34°
2026-04-22 04:43 33.74984 -118.08525 29110 ft 466 kts 35°
2026-04-22 04:43 33.77608 -118.06168 29122 ft 489 kts 35°
2026-04-22 04:44 33.80390 -118.03659 29124 ft 511 kts 35°
2026-04-22 04:44 33.83282 -118.01061 29118 ft 524 kts 35°
2026-04-22 04:44 33.86208 -117.98432 29147 ft 524 kts 35°
2026-04-22 04:45 33.92030 -117.93184 29150 ft 522 kts 36°
2026-04-22 04:45 33.97818 -117.87874 29142 ft 524 kts 36°
2026-04-22 04:46 34.03611 -117.82586 29156 ft 526 kts 36°
2026-04-22 04:46 34.09266 -117.77029 29169 ft 524 kts 45°
2026-04-22 04:47 34.13960 -117.70261 29162 ft 528 kts 51°
2026-04-22 04:47 34.18595 -117.63396 29161 ft 525 kts 51°
2026-04-22 04:48 34.23196 -117.56541 29140 ft 526 kts 51°
2026-04-22 04:48 34.27775 -117.49726 29108 ft 527 kts 51°
2026-04-22 04:49 34.32396 -117.42823 29088 ft 527 kts 52°
2026-04-22 04:49 34.36993 -117.35950 29098 ft 524 kts 52°
2026-04-22 04:50 34.41586 -117.29063 29104 ft 527 kts 52°
2026-04-22 04:50 34.46189 -117.22155 29103 ft 526 kts 52°
2026-04-22 04:51 34.50736 -117.15312 29091 ft 524 kts 52°
2026-04-22 04:51 34.55339 -117.08441 29071 ft 525 kts 51°
2026-04-22 04:52 34.60025 -117.01626 29039 ft 526 kts 52°
2026-04-22 04:52 34.64697 -116.94801 29012 ft 524 kts 51°
2026-04-22 04:53 34.69355 -116.88007 29021 ft 522 kts 52°
2026-04-22 04:53 34.73992 -116.81209 29027 ft 522 kts 52°
2026-04-22 04:54 34.78597 -116.74463 29028 ft 522 kts 52°
2026-04-22 04:54 34.83225 -116.67657 29031 ft 522 kts 52°
2026-04-22 04:55 34.87982 -116.60997 29017 ft 521 kts 49°
2026-04-22 04:55 34.92047 -116.55609 29015 ft 519 kts 49°
2026-04-22 04:56 34.96906 -116.49069 29001 ft 522 kts 49°
2026-04-22 04:56 35.01798 -116.42539 29001 ft 519 kts 50°
2026-04-22 04:57 35.07442 -116.34942 28998 ft 522 kts 50°
2026-04-22 04:57 35.12307 -116.28404 28992 ft 518 kts 50°
2026-04-22 04:58 35.16330 -116.22973 28991 ft 520 kts 50°
2026-04-22 04:58 35.21193 -116.16411 28998 ft 520 kts 50°
2026-04-22 04:59 35.26029 -116.09862 28995 ft 519 kts 50°
2026-04-22 04:59 35.30865 -116.03309 29000 ft 519 kts 50°
2026-04-22 05:00 35.35700 -115.96739 28999 ft 519 kts 50°
2026-04-22 05:00 35.40493 -115.90219 29004 ft 517 kts 50°
2026-04-22 05:01 35.45282 -115.83684 29001 ft 515 kts 50°
2026-04-22 05:01 35.50063 -115.77156 29007 ft 511 kts 50°
2026-04-22 05:02 35.54847 -115.70603 29001 ft 516 kts 50°
2026-04-22 05:02 35.59620 -115.64061 29008 ft 513 kts 50°
2026-04-22 05:03 35.64392 -115.57499 28994 ft 516 kts 50°
2026-04-22 05:03 35.69136 -115.50971 28988 ft 515 kts 50°
2026-04-22 05:04 35.73896 -115.44399 28980 ft 514 kts 50°
2026-04-22 05:04 35.78657 -115.37817 28975 ft 516 kts 50°
2026-04-22 05:05 35.83438 -115.31196 28974 ft 517 kts 50°
2026-04-22 05:05 35.88204 -115.24579 28982 ft 515 kts 50°
2026-04-22 05:06 35.92937 -115.17995 28981 ft 518 kts 50°
2026-04-22 05:06 35.97728 -115.11321 28984 ft 520 kts 50°
2026-04-22 05:07 36.02505 -115.04649 28986 ft 518 kts 50°
2026-04-22 05:07 36.07277 -114.97973 28943 ft 519 kts 50°
2026-04-22 05:08 36.12031 -114.91308 28860 ft 520 kts 50°
2026-04-22 05:08 36.16734 -114.84528 28863 ft 518 kts 56°
2026-04-22 05:09 36.20042 -114.76693 28856 ft 512 kts 72°
2026-04-22 05:09 36.22573 -114.68426 28827 ft 515 kts 72°
2026-04-22 05:10 36.25084 -114.60185 28808 ft 514 kts 72°
2026-04-22 05:10 36.27606 -114.51899 28803 ft 513 kts 72°
2026-04-22 05:11 36.30110 -114.43641 28803 ft 512 kts 72°
2026-04-22 05:11 36.32618 -114.35349 28807 ft 515 kts 72°
2026-04-22 05:12 36.35127 -114.27036 28811 ft 513 kts 72°
2026-04-22 05:12 36.37601 -114.18799 28814 ft 515 kts 72°
2026-04-22 05:13 36.40097 -114.10485 28816 ft 513 kts 72°
2026-04-22 05:13 36.42576 -114.02182 28824 ft 515 kts 72°
2026-04-22 05:14 36.45068 -113.93832 28832 ft 514 kts 72°
2026-04-22 05:14 36.47537 -113.85513 28833 ft 514 kts 72°
2026-04-22 05:15 36.49997 -113.77214 28832 ft 516 kts 72°
2026-04-22 05:15 36.52462 -113.68870 28839 ft 514 kts 72°
2026-04-22 05:16 36.54922 -113.60516 28836 ft 515 kts 72°
2026-04-22 05:16 36.57384 -113.52132 28844 ft 517 kts 72°
2026-04-22 05:17 36.59824 -113.43802 28840 ft 515 kts 72°
2026-04-22 05:17 36.62266 -113.35429 28847 ft 515 kts 72°
2026-04-22 05:18 36.65925 -113.22831 28868 ft 517 kts 72°
2026-04-22 05:18 36.68343 -113.14469 28904 ft 515 kts 72°
2026-04-22 05:19 36.70759 -113.06089 28937 ft 515 kts 72°
2026-04-22 05:19 36.73184 -112.97653 28949 ft 516 kts 72°
2026-04-22 05:20 36.75593 -112.89249 28957 ft 515 kts 73°
2026-04-22 05:20 36.77989 -112.80858 28941 ft 517 kts 72°
2026-04-22 05:21 36.80395 -112.72417 28916 ft 516 kts 73°
2026-04-22 05:21 36.82793 -112.63966 28878 ft 517 kts 73°
2026-04-22 05:22 36.85192 -112.55495 28858 ft 518 kts 73°
2026-04-22 05:22 36.87568 -112.47070 28857 ft 516 kts 73°
2026-04-22 05:23 36.89937 -112.38639 28856 ft 515 kts 73°
2026-04-22 05:23 36.92306 -112.30157 28853 ft 516 kts 73°
2026-04-22 05:24 36.94675 -112.21720 28856 ft 515 kts 73°
2026-04-22 05:24 36.97036 -112.13235 28851 ft 516 kts 73°
2026-04-22 05:25 36.99378 -112.04829 28847 ft 515 kts 73°
2026-04-22 05:25 37.01724 -111.96357 28842 ft 515 kts 73°
2026-04-22 05:26 37.04065 -111.87890 28837 ft 515 kts 73°
2026-04-22 05:26 37.06400 -111.79413 28997 ft 516 kts 75°
2026-04-22 05:27 37.07569 -111.75148 28886 ft 535 kts 75°
2026-04-22 05:27 37.08780 -111.70720 28890 ft 537 kts 75°
2026-04-22 05:27 37.11210 -111.61878 28905 ft 538 kts 75°
2026-04-22 05:28 37.13624 -111.52997 28907 ft 538 kts 75°
2026-04-22 05:28 37.16043 -111.44121 28896 ft 538 kts 75°
2026-04-22 05:29 37.18424 -111.35314 28878 ft 536 kts 75°
2026-04-22 05:29 37.20825 -111.26425 28843 ft 540 kts 75°
2026-04-22 05:30 37.23766 -111.17775 28817 ft 540 kts 65°
2026-04-22 05:30 37.27112 -111.09333 28815 ft 540 kts 67°
2026-04-22 05:31 37.30477 -111.00889 28824 ft 542 kts 66°
2026-04-22 05:31 37.33802 -110.92509 28819 ft 538 kts 66°
2026-04-22 05:32 37.37136 -110.84066 28814 ft 540 kts 66°
2026-04-22 05:32 37.40477 -110.75604 28811 ft 539 kts 66°
2026-04-22 05:33 37.43795 -110.67160 28815 ft 538 kts 66°
2026-04-22 05:33 37.47092 -110.58760 28808 ft 540 kts 66°
2026-04-22 05:34 37.50415 -110.50264 28817 ft 541 kts 66°
2026-04-22 05:34 37.53727 -110.41777 28820 ft 542 kts 67°
2026-04-22 05:35 37.57041 -110.33254 28829 ft 540 kts 67°
2026-04-22 05:35 37.60350 -110.24732 28843 ft 542 kts 66°
2026-04-22 05:36 37.63633 -110.16243 28860 ft 543 kts 66°
2026-04-22 05:36 37.66946 -110.07659 28860 ft 542 kts 66°
2026-04-22 05:37 37.70239 -109.99100 28857 ft 543 kts 66°
2026-04-22 05:37 37.73534 -109.90521 28876 ft 543 kts 66°
2026-04-22 05:38 37.76789 -109.82005 28906 ft 541 kts 67°
2026-04-22 05:38 37.80061 -109.73440 28919 ft 540 kts 66°
2026-04-22 05:39 37.83314 -109.64884 28926 ft 539 kts 66°
2026-04-22 05:39 37.86555 -109.56347 28924 ft 537 kts 66°
2026-04-22 05:40 37.89753 -109.47898 28908 ft 536 kts 67°
2026-04-22 05:40 37.92969 -109.39375 28883 ft 535 kts 67°
2026-04-22 05:41 37.96162 -109.30891 28883 ft 534 kts 67°
2026-04-22 05:41 37.99358 -109.22377 28882 ft 536 kts 67°
2026-04-22 05:42 38.02387 -109.14285 28880 ft 531 kts 67°
2026-04-22 05:42 38.05552 -109.05805 28878 ft 533 kts 67°
2026-04-22 05:43 38.08719 -108.97300 28878 ft 533 kts 67°
2026-04-22 05:43 38.11966 -108.88897 28869 ft 530 kts 65°
2026-04-22 05:44 38.15231 -108.80549 28863 ft 532 kts 66°
2026-04-22 05:44 38.18497 -108.72259 28692 ft 502 kts 65°
2026-04-22 05:45 38.20027 -108.68350 27352 ft 490 kts 66°
2026-04-22 05:45 38.21526 -108.64496 26102 ft 483 kts 66°
2026-04-22 05:45 38.23008 -108.60721 25880 ft 478 kts 65°
2026-04-22 05:45 38.24518 -108.56837 25879 ft 500 kts 66°
2026-04-22 05:46 38.26044 -108.52912 25886 ft 503 kts 65°
2026-04-22 05:46 38.27605 -108.48914 25889 ft 505 kts 65°
2026-04-22 05:46 38.29165 -108.44910 25890 ft 505 kts 65°
2026-04-22 05:46 38.30712 -108.40914 25889 ft 503 kts 65°
2026-04-22 05:47 38.32256 -108.36929 25886 ft 502 kts 65°
2026-04-22 05:47 38.33803 -108.32939 25887 ft 501 kts 65°
2026-04-22 05:47 38.35339 -108.28968 25893 ft 500 kts 65°
2026-04-22 05:47 38.36875 -108.24984 25910 ft 501 kts 65°
2026-04-22 05:48 38.38415 -108.20992 25933 ft 502 kts 65°
2026-04-22 05:48 38.39930 -108.17061 25955 ft 500 kts 65°
2026-04-22 05:48 38.41459 -108.13088 25977 ft 498 kts 65°
2026-04-22 05:48 38.42981 -108.09126 25994 ft 497 kts 65°
2026-04-22 05:49 38.44497 -108.05169 26021 ft 492 kts 65°
2026-04-22 05:49 38.45969 -108.01327 25758 ft 474 kts 65°
2026-04-22 05:49 38.47393 -107.97597 25426 ft 463 kts 66°
2026-04-22 05:49 38.48780 -107.93907 25088 ft 461 kts 66°
2026-04-22 05:50 38.50166 -107.90219 24756 ft 460 kts 66°
2026-04-22 05:50 38.51558 -107.86547 24431 ft 458 kts 66°
2026-04-22 05:50 38.52939 -107.82892 24039 ft 455 kts 66°
2026-04-22 05:50 38.54286 -107.79313 23662 ft 451 kts 66°
2026-04-22 05:51 38.55638 -107.75713 23193 ft 447 kts 66°
2026-04-22 05:51 38.56978 -107.72147 22731 ft 444 kts 66°
2026-04-22 05:51 38.58310 -107.68599 22253 ft 442 kts 67°
2026-04-22 05:51 38.59634 -107.65066 21794 ft 440 kts 67°
2026-04-22 05:52 38.60952 -107.61547 21345 ft 438 kts 67°
2026-04-22 05:52 38.62262 -107.58043 20905 ft 436 kts 67°
2026-04-22 05:52 38.63562 -107.54563 20472 ft 432 kts 67°
2026-04-22 05:52 38.64854 -107.51104 20043 ft 429 kts 67°
2026-04-22 05:53 38.66115 -107.47720 19626 ft 427 kts 67°
2026-04-22 05:53 38.67410 -107.44311 19227 ft 425 kts 66°
2026-04-22 05:53 38.68703 -107.40939 18838 ft 420 kts 66°
2026-04-22 05:53 38.69968 -107.37598 18441 ft 417 kts 67°
2026-04-22 05:54 38.71224 -107.34255 18014 ft 415 kts 67°
2026-04-22 05:54 38.72511 -107.30837 17964 ft 437 kts 66°
2026-04-22 05:54 38.73840 -107.27334 17975 ft 437 kts 66°
2026-04-22 05:54 38.75171 -107.23814 17994 ft 440 kts 66°
2026-04-22 05:55 38.76481 -107.20318 17996 ft 441 kts 66°
2026-04-22 05:55 38.77811 -107.16778 18004 ft 441 kts 66°
2026-04-22 05:55 38.79139 -107.13246 18016 ft 440 kts 66°
2026-04-22 05:55 38.80469 -107.09705 18020 ft 441 kts 66°
2026-04-22 05:56 38.81796 -107.06160 18020 ft 441 kts 66°
2026-04-22 05:56 38.83121 -107.02613 18022 ft 441 kts 66°
2026-04-22 05:56 38.84445 -106.99071 18010 ft 440 kts 66°
2026-04-22 05:56 38.85755 -106.95565 18005 ft 443 kts 66°
2026-04-22 05:57 38.87106 -106.91942 17991 ft 444 kts 66°
2026-04-22 05:57 38.88436 -106.88371 17987 ft 443 kts 66°
2026-04-22 05:57 38.89754 -106.84824 17802 ft 433 kts 67°
2026-04-22 05:57 38.91004 -106.81464 17487 ft 414 kts 67°
2026-04-22 05:58 38.92230 -106.78155 17176 ft 409 kts 67°
2026-04-22 05:58 38.93455 -106.74841 16869 ft 411 kts 67°
2026-04-22 05:58 38.94682 -106.71530 16554 ft 410 kts 67°
2026-04-22 05:58 38.95906 -106.68227 16250 ft 408 kts 66°
2026-04-22 05:59 38.97100 -106.65000 15947 ft 391 kts 66°